Home   Weather   Terre Haute   Past weeks

Flag for USA Past Weather in Terre Haute, Indiana, USA — Yesterday and Last 2 Weeks

Now
67 °F

Sunny.


Feels Like: 67 °F
Forecast: 68 / 86 °F
Wind: No wind

Location: Terre Haute International Airport - Hulman Field

Current Time: Aug 16, 2017 at 9:18:13 am

Latest Report: Aug 16, 2017 at 7:53 am


Visibility: 4 mi

Pressure: 29.98 "Hg

Humidity: 97%

Dew Point: 66 °F

Location of Terre HauteLocation

Past Weather in Terre Haute — Graph

°F

Terre Haute Temperature Yesterday

Maximum temperature yesterday: 87 °F (at 2:53 pm)
Minimum temperature yesterday: 64 °F (at 2:53 am)
Average temperature yesterday: 75 °F

High & Low Weather Summary for the Past Weeks

 TemperatureHumidityPressure
High87 °F (Aug 15, 2:53 pm)97% (Aug 3, 6:39 am)30.22 "Hg (Aug 3, 6:39 am)
Low52 °F (Aug 9, 6:04 am)38% (Aug 8, 2:53 pm)29.82 "Hg (Aug 14, 6:53 pm)
Average70 °F76%30.03 "Hg
* Reported Aug 1 7:53 am — Aug 16 7:53 am, Terre Haute. Weather by CustomWeather, © 2017

Note: Actual official high and low records may vary slightly from our data, if they occured in-between our weather recording intervals... More about our weather records

Advertising

Terre Haute Weather History for the Previous 24 Hours

Scroll right to see more
 ConditionsComfort  
Time TempWeatherWind HumidityBarometerVisibility
7:53 am
Wed, Aug 16
67 °FSunny.No wind97%29.98 "Hg4 mi
7:29 am66 °FSunny.No wind93%29.99 "Hg2 mi
7:17 am65 °FSunny.No wind94%29.99 "Hg1 mi
6:59 am65 °FClear.No wind94%29.99 "Hg1 mi
5:53 am65 °FLight fog.No wind94%29.96 "Hg6 mi
5:07 am65 °FLight fog.No wind94%29.98 "Hg6 mi
4:56 am65 °FFog.No wind94%29.98 "Hg0 mi
3:53 am67 °FFog.No wind90%29.96 "Hg4 mi
2:53 am67 °FClear.No wind93%29.95 "Hg7 mi
1:53 am67 °FFog.No wind93%29.96 "Hg6 mi
12:53 am69 °FClear.No wind87%29.95 "Hg9 mi
11:53 pm
Tue, Aug 15
70 °FClear.3 mph90%29.95 "Hg10 mi
10:53 pm71 °FClear.No wind90%29.94 "Hg10 mi
9:53 pm73 °FClear.No wind84%29.92 "Hg10 mi
8:53 pm75 °FClear.No wind85%29.90 "Hg10 mi
7:53 pm83 °FSunny.3 mph63%29.88 "Hg10 mi
6:53 pm85 °FScattered clouds.5 mph59%29.89 "Hg10 mi
5:53 pm86 °FSunny.3 mph51%29.89 "Hg10 mi
4:53 pm87 °FPassing clouds.5 mph53%29.90 "Hg10 mi
3:53 pm86 °FScattered clouds.7 mph55%29.91 "Hg10 mi
2:53 pm87 °FPartly sunny.7 mph53%29.92 "Hg10 mi
1:53 pm85 °FScattered clouds.5 mph57%29.92 "Hg10 mi
12:53 pm83 °FPassing clouds.7 mph63%29.93 "Hg10 mi
11:53 am81 °FSunny.No wind65%29.94 "Hg10 mi
10:53 am77 °FOvercast.No wind77%29.93 "Hg10 mi
9:53 am74 °FOvercast.3 mph82%29.92 "Hg9 mi
Weather by CustomWeather, © 2017

See weather overviewHow to use our weather pages